Location: Brienzwiler
(46.7508°N, 8.1014°E)
Time: 08:06:26
(UTC+00:00)

APEX - Pass Details

Date: 05 July 2020
Orbit: 333 x 1108 km, 69.9° (Epoch: 06 August)

Event Time Altitude Azimuth Distance (km) Brightness Sun altitude
Rises 23:39:31 0° 328° (NNW) 2,130 7.2 -20.6°
Reaches altitude 10° 23:41:28 10° 324° (NW) 1,278 5.9 -20.6°
Enters shadow 23:43:08 32° 308° (NW) 615 3.9 -20.5°
